• Join FlightAware (Why Join?)
  • Login
  • US Flag 
02:14PM EST


 

Airport Tracker/Info


-or-


 

Live Flight TrackerFlight Track Log ✈ EJA328 ✈ 22-Mar-2014 ✈ KSMO - KPHX

Flight Track Log - Related Links

Times and Time Zones

All times are in EDT time to prevent confusion due to time zone crossing. See the EJA328 flight status page for this flight to view local times or setup timezone preferences in your user account.

Time Position Orientation Groundspeed Altitude Reporting Facility
EDT Latitude Longitude Course Direction KTS MPH feet Rate Location/Type
12:32PM 34.0040 -118.4656 226° Southwest 148 170 800  Level FlightAware ADS-B
12:32PM 33.9924 -118.4798 227° Southwest 172 198 1,600 2,460 Climbing FlightAware ADS-B
12:33PM 33.9852 -118.4964 264° West 174 200 2,500 2,940 Climbing FlightAware ADS-B
12:33PM 33.9889 -118.5355 277° West 188 216 4,500 2,820 Climbing FlightAware ADS-B
12:34PM 33.9920 -118.5589 286° West 210 242 5,400 2,820 Climbing FlightAware ADS-B
12:34PM 34.0057 -118.5734 341° North 220 253 6,400 2,820 Climbing FlightAware ADS-B
12:34PM 34.0092 -118.5744 349° North 224 258 6,500 900 Climbing FlightAware ADS-B
12:34PM 34.0234 -118.5712 20° North 237 273 6,700 660 Climbing FlightAware ADS-B
12:35PM 34.0438 -118.5497 45° Northeast 270 311 6,900 180 Climbing FlightAware ADS-B
12:35PM 34.0797 -118.5071 45° Northeast 260 299 6,900 660 Level FlightAware ADS-B
12:36PM 34.1216 -118.4658 15° North 267 307 7,900 1,980 Climbing FlightAware ADS-B
12:36PM 34.1456 -118.4575 18° North 270 311 9,100 2,760 Climbing FlightAware ADS-B
12:37PM 34.2286 -118.4242 18° North 325 374 11,800 2,640 Climbing FlightAware ADS-B
12:38PM 34.2882 -118.4008 18° North 336 387 13,700 2,760 Climbing FlightAware ADS-B
12:39PM 34.3478 -118.3773 18° North 347 399 15,500 2,580 Climbing FlightAware ADS-B
12:40PM 34.4404 -118.3402 23° Northeast 360 414 18,000 2,280 Climbing FlightAware ADS-B
12:40PM 34.4755 -118.3099 46° Northeast 377 434 18,800 1,500 Climbing FlightAware ADS-B
12:40PM 34.4890 -118.2829 77° East 381 438 19,100 1,560 Climbing FlightAware ADS-B
12:41PM 34.5103 -118.1636 77° East 385 443 20,700 1,800 Climbing FlightAware ADS-B
12:42PM 34.5260 -118.0777 78° East 393 452 22,000 1,980 Climbing FlightAware ADS-B
12:43PM 34.5393 -118.0028 78° East 402 463 23,200 1,800 Climbing FlightAware ADS-B
12:43PM 34.5571 -117.9003 78° East 419 482 24,400 1,500 Climbing FlightAware ADS-B
12:45PM 34.5954 -117.6787 78° East 444 511 26,800 1,500 Climbing FlightAware ADS-B
12:46PM 34.6159 -117.5582 78° East 449 517 28,000 1,440 Climbing FlightAware ADS-B
12:47PM 34.6345 -117.3695 84° East 456 525 29,800 1,500 Climbing FlightAware ADS-B
12:48PM 34.6509 -117.2747 78° East 457 526 30,900 1,500 Climbing FlightAware ADS-B
12:48PM 34.6691 -117.1736 78° East 458 527 31,800 1,200 Climbing FlightAware ADS-B
12:49PM 34.6899 -117.0582 78° East 466 536 32,600 1,020 Climbing FlightAware ADS-B
12:50PM 34.7097 -116.9492 78° East 470 541 33,300 960 Climbing FlightAware ADS-B
12:51PM 34.7392 -116.7863 78° East 477 549 34,300 900 Climbing FlightAware ADS-B
12:51PM 34.7562 -116.6924 78° East 479 551 34,900 480 Climbing FlightAware ADS-B
12:52PM 34.7780 -116.5704 78° East 487 560 35,000 60 Climbing FlightAware ADS-B
12:53PM 34.8015 -116.4458 74° East 492 566 35,000  Level FlightAware ADS-B
12:55PM 34.8600 -116.2203 74° East 497 572 35,000  Level Los Angeles Center
12:56PM 34.9011 -116.0606 73° East 497 572 35,000  Level Los Angeles Center
12:57PM 34.9514 -115.8675 72° East 497 572 35,000  Level Los Angeles Center
12:58PM 34.9936 -115.7058 72° East 498 573 35,000  Level Los Angeles Center
12:59PM 35.0364 -115.5442 72° East 499 574 35,000  Level Los Angeles Center
01:00PM 35.0778 -115.3836 72° East 500 575 35,000 -660 Level Los Angeles Center
01:01PM 35.1197 -115.2156 73° East 494 568 33,700 -1,020 Descending Los Angeles Center
01:02PM 35.1656 -115.0619 70° East 484 557 33,000 -360 Descending Los Angeles Center
01:03PM 35.2219 -114.8775 69° East 485 558 33,000  Level Los Angeles Center
01:04PM 35.2239 -114.7119 89° East 491 565 33,000  Level Los Angeles Center
01:05PM 35.2186 -114.5472 92° East 489 563 33,000  Level Los Angeles Center
01:06PM 35.2125 -114.3839 93° East 487 560 33,000  Level Los Angeles Center
01:07PM 35.2064 -114.2211 93° East 485 558 33,000  Level Los Angeles Center
01:08PM 35.1997 -114.0247 92° East 482 555 33,000 -660 Level Los Angeles Center
01:14PM 35.0857 -113.1694 124° Southeast 444 511 29,000 -600 Descending FlightAware ADS-B
01:17PM 35.1822 -113.6274 124° Southeast 445 512 27,900 -1,380 Descending FlightAware ADS-B (KPRC)
01:22PM 34.4312 -112.2274 167° South 345 397 17,000 -1,920 Descending FlightAware ADS-B (KPRC)
01:23PM 34.3529 -112.2064 169° South 345 397 17,000  Level FlightAware ADS-B (KPRC)
01:24PM 34.2958 -112.1911 169° South 354 407 17,000 -1,140 Level Albuquerque Center
01:25PM 34.1892 -112.1631 168° South 330 380 15,000 -1,800 Descending Albuquerque Center
01:26PM 34.1069 -112.1417 168° South 310 357 13,400 -1,680 Descending Albuquerque Center
01:27PM 34.0231 -112.1425 180° South 308 354 11,600 -1,800 Descending Albuquerque Center
01:28PM 33.9444 -112.1511 185° South 289 333 9,800 -1,260 Descending Albuquerque Center
01:29PM 33.8714 -112.1617 187° South 270 311 9,000 -840 Descending Albuquerque Center
01:30PM 33.7800 -112.1825 191° South 279 321 8,100 -1,260 Descending Albuquerque Center
01:31PM 33.7053 -112.1839 181° South 260 299 6,400 -1,020 Descending Albuquerque Center
01:32PM 33.6406 -112.1836 180° South 246 283 6,000 -360 Descending Albuquerque Center
01:33PM 33.5756 -112.1836 180° South 237 273 5,700 -840 Descending Albuquerque Center
01:34PM 33.5128 -112.1836 180° South 229 264 4,300 -1,380 Descending Albuquerque Center
01:35PM 33.4561 -112.1586 160° South 181 208 2,900 -840 Descending Albuquerque Center
01:36PM 33.4278 -112.1225 133° Southeast 165 190 2,600 -480 Descending Albuquerque Center
01:37PM 33.4333 -112.0833 80° East 140 161 2,100 -660 Descending Phoenix TRACON
01:38PM 33.4333 -112.0500 90° East 131 151 1,500 -600 Descending Phoenix TRACON
01:40PM 33.4343 -112.0116 88° East  Level Estimated